Location: Ar Ranvel
(48.3000°N, 4.8833°W)
Time: 07:59:04
(UTC+00:00)

SL-8 R/B - Pass Details

Date: 16 June 2021
Orbit: 656 x 667 km, 48.4° (Epoch: 01 August)

Event Time Altitude Azimuth Distance (km) Brightness Sun altitude
Rises 21:29:37 0° 280° (W) 2,994 7.9 -8.8°
Reaches altitude 10° 21:31:59 10° 279° (W) 2,078 7.0 -9.0°
Maximum altitude 21:36:47 79° 194° (SSW) 676 3.7 -9.5°
Drops below altitude 10° 21:41:33 10° 108° (ESE) 2,068 5.8 -10.0°
Enters shadow 21:41:59 - 108° (ESE) 2,238 5.9 -10.0°
